Shreveport, LA

12:55 PM CDT on August 17, 2017 (GMT -0500)
Shreveport Regional

Weather History for KSHV - April, 2014

Change the Weather History Date:

Friday, April 4, 2014

  Actual Average Record
Temperature  
Mean Temperature 63 °F 62 °F  
Max Temperature 74 °F 74 °F 92 °F (1880)
Min Temperature 52 °F 50 °F 31 °F (1987)
Degree Days  
Heating Degree Days 2 5  
Month to date heating degree days 2 20  
Since 1 July heating degree days 2435 2153  
Cooling Degree Days 0 2  
Month to date cooling degree days 24 8  
Year to date cooling degree days 43 49  
Growing Degree Days 10 (Base 50)    
Moisture  
Dew Point 46 °F    
Average Humidity 59    
Maximum Humidity 87    
Minimum Humidity 30    
Precipitation  
Precipitation 0.72 in 0.14 in 5.15 in (1999)
Month to date precipitation 0.73 0.56  
Year to date precipitation 8.19 13.65  
Snow  
Snow 0.00 in - - ()
Month to date snowfall 0.0  
Since 1 July snowfall 1.0  
Snow Depth 0.00 in    
Sea Level Pressure  
Sea Level Pressure 29.96 in    
Wind  
Wind Speed 11 mph (NW)    
Max Wind Speed 32 mph    
Max Gust Speed 48 mph    
Visibility 8 miles    
Events Rain , Thunderstorm    
T = Trace of Precipitation, MM = Missing Value Source: NWS Daily Summary

Daily Weather History Graph

Daily Weather History Graph

Search for Another Location

Airport or City:

Trip Planner

Search our weather history database for the weather conditions in past years. The results will help you decide how hot, cold, wet, or windy it might be!

Date:

Astronomy

Apr. 04, 2014 Rise Set
Actual Time 6:59 AM CDT 7:37 PM CDT
Civil Twilight 6:34 AM CDT 8:02 PM CDT
Nautical Twilight 6:05 AM CDT 8:31 PM CDT
Astronomical Twilight 5:35 AM CDT 9:01 PM CDT
Moon 10:28 AM CDT (4/4) No Moon Set
Length of Visible Light 13h 27m
Length of Day
12h 37m
Waxing Crescent, 25% of the Moon is Illuminated
Apr 4
Waxing Crescent
Apr 7
First Quarter
Apr 15
Full
Apr 22
Last Quarter
Apr 29
New

Hourly Weather History & Observations

Time (CDT) Temp. Dew Point Humidity Pressure Visibility Wind Dir Wind Speed Gust Speed Precip Events Conditions
12:56 AM 73.9 °F 70.0 °F 87% 29.76 in 9.0 mi WSW 9.2 mph 19.6 mph N/A   Overcast
1:12 AM 64.4 °F 60.8 °F 88% 29.80 in 2.5 mi WNW 25.3 mph 48.3 mph 0.00 in Rain Heavy Rain
1:21 AM 62.6 °F 60.8 °F 94% 29.79 in 2.0 mi NW 16.1 mph 36.8 mph 0.05 in Rain , Thunderstorm Heavy Thunderstorms and Rain
1:28 AM 62.6 °F 59.0 °F 88% 29.79 in 2.0 mi West 11.5 mph 25.3 mph 0.12 in Rain , Thunderstorm Heavy Thunderstorms and Rain
1:36 AM 62.6 °F 59.0 °F 88% 29.79 in 2.0 mi West 13.8 mph 19.6 mph 0.22 in Rain , Thunderstorm Heavy Thunderstorms and Rain
1:56 AM 62.1 °F 59.0 °F 90% 29.78 in 2.0 mi West 11.5 mph - 0.48 in Rain , Thunderstorm Heavy Thunderstorms and Rain
2:04 AM 62.6 °F 60.8 °F 94% 29.79 in 5.0 mi West 10.4 mph - 0.04 in Rain , Thunderstorm Light Thunderstorms and Rain
2:24 AM 64.4 °F 60.8 °F 88% 29.78 in 10.0 mi WNW 13.8 mph - 0.06 in Rain Light Rain
2:47 AM 64.4 °F 60.8 °F 88% 29.81 in 2.0 mi WNW 25.3 mph 31.1 mph 0.07 in Rain , Thunderstorm Heavy Thunderstorms and Rain
2:56 AM 64.0 °F 60.1 °F 87% 29.78 in 2.0 mi NW 20.7 mph 31.1 mph 0.16 in Rain , Thunderstorm Heavy Thunderstorms and Rain
3:07 AM 64.4 °F 60.8 °F 88% 29.82 in 4.0 mi WNW 18.4 mph - 0.03 in Rain , Thunderstorm Heavy Thunderstorms and Rain
3:56 AM 63.0 °F 59.0 °F 87% 29.84 in 10.0 mi WNW 12.7 mph 23.0 mph 0.08 in   Overcast
4:56 AM 57.9 °F 48.0 °F 70% 29.83 in 10.0 mi NW 17.3 mph 31.1 mph N/A   Scattered Clouds
5:56 AM 55.4 °F 48.2 °F 77% 29.88 in 10.0 mi NW 12.7 mph - N/A   Partly Cloudy
6:56 AM 53.1 °F 44.1 °F 71% 29.98 in 10.0 mi NW 9.2 mph - N/A   Mostly Cloudy
7:56 AM 52.0 °F 42.1 °F 69% 30.03 in 10.0 mi NNW 12.7 mph 18.4 mph N/A   Scattered Clouds
8:56 AM 54.0 °F 41.0 °F 62% 30.07 in 10.0 mi North 10.4 mph 20.7 mph N/A   Scattered Clouds
9:56 AM 57.0 °F 41.0 °F 55% 30.08 in 10.0 mi North 11.5 mph - N/A   Scattered Clouds
10:56 AM 59.0 °F 41.0 °F 51% 30.09 in 10.0 mi North 9.2 mph - N/A   Partly Cloudy
11:56 AM 63.0 °F 39.0 °F 41% 30.09 in 10.0 mi North 16.1 mph 20.7 mph N/A   Partly Cloudy
12:56 PM 64.9 °F 35.1 °F 33% 30.08 in 10.0 mi North 17.3 mph 24.2 mph N/A   Clear
1:56 PM 66.9 °F 36.0 °F 32% 30.08 in 10.0 mi NNW 13.8 mph 21.9 mph N/A   Clear
2:56 PM 68.0 °F 35.6 °F 30% 30.07 in 10.0 mi North 9.2 mph - N/A   Clear
3:56 PM 68.0 °F 36.0 °F 31% 30.05 in 10.0 mi NW 10.4 mph - N/A   Scattered Clouds
4:56 PM 68.0 °F 35.1 °F 30% 30.04 in 10.0 mi North 9.2 mph - N/A   Mostly Cloudy
5:56 PM 68.0 °F 36.0 °F 31% 30.03 in 10.0 mi NNW 9.2 mph - N/A   Mostly Cloudy
6:56 PM 64.0 °F 35.1 °F 34% 30.04 in 10.0 mi North 6.9 mph - N/A   Mostly Cloudy
7:56 PM 61.0 °F 34.0 °F 36% 30.05 in 10.0 mi North 9.2 mph - N/A   Mostly Cloudy
8:56 PM 60.1 °F 35.1 °F 39% 30.06 in 10.0 mi North 5.8 mph - N/A   Mostly Cloudy
9:56 PM 59.0 °F 35.1 °F 41% 30.09 in 10.0 mi North 4.6 mph - N/A   Mostly Cloudy
10:56 PM 55.9 °F 36.0 °F 47% 30.09 in 10.0 mi North 4.6 mph - N/A   Mostly Cloudy
11:56 PM 55.9 °F 36.0 °F 47% 30.09 in 10.0 mi NNE 6.9 mph - N/A   Mostly Cloudy